#timestamp,LO_Frequency,Hit 
1498633215.8,286046988.6,N
1498633235.6,286046989.4,N
1498633255.5,286046986.9,N
1498633275.3,286046989.5,N
1498633295.1,286046986.9,N
1498633315.9,286046987.4,N
1498633335.7,286046987.5,N
1498633355.5,286046989.1,N
1498633375.4,286046987.6,N
1498633395.2,286046987.7,N
1498633415.0,286046985.7,N
1498633415.9,286046985.7,N
1498633435.8,286046987.9,N
1498633455.6,286046987.0,N
1498633475.4,286046988.0,N
1498633495.3,286046985.8,N
1498633515.1,286046985.6,N
1498633516.0,286046985.6,N
1498633535.8,286046987.6,N
1498633555.6,286046985.3,N
1498633575.5,286046988.0,N
1498633595.3,286046985.9,N
1498633615.1,286046986.0,N
1498633635.9,286046985.4,N
1498633655.7,286046987.9,N
1498633675.5,286046985.5,N
1498633695.4,286046986.4,N
1498633715.2,286046984.2,N
1498633735.0,286046982.5,N
1498633735.9,286046982.5,N
1498633755.8,286046984.5,N
1498633775.6,286046984.2,N
1498633795.4,286046984.1,N
1498633815.3,286046984.9,N
1498633835.1,286046984.5,N
1498633836.0,286046984.5,N
1498633855.8,286046984.1,N
1498633875.7,286046986.5,N
1498633895.5,286046985.2,N
1498633915.3,286046984.5,N
1498633935.1,286046984.6,N
1498633955.9,286046982.5,N
1498633975.7,286046983.2,N
1498633995.5,286046983.6,N
1498634015.4,286046984.8,N
1498634035.2,286046985.2,N
1498634055.0,286046985.1,N
1498634055.9,286046985.1,N
1498634075.8,286046984.8,N
1498634095.6,286046983.4,N
1498634115.4,286046983.0,N
1498634135.3,286046982.1,N
1498634155.1,286046981.3,N
1498634156.0,286046981.3,N
1498634175.8,286046980.4,N
1498634195.7,286046980.4,N
1498634215.5,286046980.0,N
1498634235.3,286046979.7,N
1498634255.2,286046977.9,N
1498634275.9,286046978.6,N
1498634295.7,286046980.3,N
1498634315.5,286046975.8,N
1498634335.4,286046977.6,N
1498634355.2,286046979.7,N
1498634375.0,286046975.8,N
1498634375.9,286046975.8,N
1498634395.8,286046976.0,N
1498634415.6,286046976.1,N
1498634435.4,286046978.2,N
1498634455.3,286046978.4,N
1498634475.1,286046976.1,N
1498634476.0,286046976.1,N
1498634495.8,286046976.8,N
1498634515.7,286046974.4,N
1498634535.5,286046972.7,N
1498634555.3,286046975.5,N
1498634575.2,286046977.1,N
1498634595.9,286046974.8,N
1498634615.7,286046975.2,N
1498634635.6,286046974.4,N
1498634655.4,286046976.3,N
1498634675.2,286046976.1,N
1498634695.0,286046974.6,N
1498634696.0,286046974.6,N
1498634715.8,286046974.3,N
1498634735.6,286046975.2,N
1498634755.4,286046973.9,N
1498634775.3,286046973.4,N
1498634795.1,286046972.4,N
1498634815.8,286046970.7,N
1498634835.7,286046970.3,N
1498634855.5,286046969.5,N
1498634875.3,286046973.5,N
1498634895.2,286046973.4,N
1498634915.9,286046971.1,N
1498634935.7,286046971.1,N
1498634955.6,286046971.1,N
1498634975.4,286046972.1,N
1498634995.2,286046971.1,N
1498635015.0,286046969.7,N
1498635015.9,286046969.7,N
1498635035.8,286046968.6,N
1498635055.6,286046970.2,N
1498635075.4,286046968.2,N
1498635095.3,286046968.6,N
1498635115.1,286046968.3,N
1498635135.8,286046969.1,N
1498635155.7,286046969.2,N
1498635175.5,286046969.2,N
1498635195.3,286046967.8,N
1498635215.2,286046968.6,N
1498635235.9,286046966.4,N
1498635255.7,286046967.3,N
1498635275.6,286046965.2,N
1498635295.4,286046965.7,N
1498635315.2,286046963.6,N
1498635335.0,286046963.2,N
1498635335.9,286046963.2,N
1498635355.8,286046966.0,N
1498635375.6,286046965.3,N
1498635395.4,286046964.5,N
1498635415.3,286046967.6,N
1498635435.1,286046966.8,N
1498635455.8,286046966.9,N
1498635475.7,286046967.4,N
1498635495.5,286046967.0,N
1498635515.3,286046967.0,N
1498635535.2,286046964.5,N
1498635555.9,286046964.8,N
1498635575.7,286046964.9,N
1498635595.6,286046966.9,N
1498635615.4,286046967.0,N
1498635635.2,286046967.2,N
1498635655.0,286046965.4,N
1498635656.0,286046965.4,N
1498635675.8,286046965.4,N
1498635695.6,286046963.5,N
1498635715.4,286046962.2,N
1498635735.3,286046960.0,N
1498635755.1,286046960.2,N
1498635775.8,286046962.0,N
1498635795.7,286046964.4,N
1498635815.5,286046963.8,N
1498635835.3,286046961.3,N
1498635855.2,286046963.4,N
1498635875.9,286046963.7,N
1498635895.7,286046962.3,N
1498635915.6,286046962.6,N
1498635935.4,286046960.8,N
1498635955.2,286046959.2,N
1498635975.1,286046957.2,N
1498635976.0,286046957.2,N
1498635995.8,286046956.7,N
1498636015.6,286046956.6,N
1498636035.4,286046956.5,N
1498636055.3,286046959.1,N
1498636075.1,286046958.3,N
1498636095.8,286046960.6,N
1498636115.7,286046960.9,N
1498636135.5,286046957.5,N
1498636155.3,286046955.5,N
1498636175.2,286046955.0,N
1498636195.9,286046957.8,N
1498636215.7,286046957.0,N
1498636235.6,286046957.7,N
1498636255.4,286046957.3,N
1498636275.2,286046956.6,N
1498636295.0,286046959.1,N
1498636296.0,286046959.1,N
1498636315.8,286046959.1,N
1498636335.6,286046959.5,N
1498636355.4,286046956.6,N
1498636375.3,286046957.7,N
1498636395.1,286046957.5,N
1498636415.8,286046956.8,N
1498636435.7,286046953.9,N
1498636455.5,286046953.7,N
1498636475.3,286046953.3,N
1498636495.2,286046954.9,N
1498636515.9,286046957.3,N
1498636535.7,286046957.4,N
1498636555.6,286046956.0,N
1498636575.4,286046955.9,N
1498636595.2,286046951.7,N
1498636615.1,286046950.5,N
1498636616.0,286046950.5,N
1498636635.8,286046954.2,N
1498636655.6,286046956.4,N
1498636675.4,286046954.0,N
1498636695.3,286046954.6,N
1498636715.1,286046954.3,N
1498636735.8,286046953.0,N
1498636755.7,286046953.1,N
1498636775.5,286046952.6,N
1498636795.3,286046950.8,N
